Time,TemperatureF,DewpointF,PressureIn,WindDirection,WindDirectionDegrees,WindSpeedMPH,WindSpeedGustMPH,Humidity,HourlyPrecipIn,Conditions,Clouds,dailyrainin,SoftwareType,DateUTC
2013-05-22 00:02:00,62.4,60.4,29.90,NNE,22,0.0,-999.0,93,0.18,,,3.43,open2300 v1.10,2013-05-22 05:02:00,
2013-05-22 00:09:00,62.4,60.4,29.88,NNE,22,0.0,-999.0,93,0.18,,,3.45,open2300 v1.10,2013-05-22 05:09:00,
2013-05-22 00:15:00,62.4,60.4,29.87,NNE,22,0.0,-999.0,93,0.16,,,3.45,open2300 v1.10,2013-05-22 05:15:00,
2013-05-22 00:24:00,62.4,60.4,29.85,NNE,22,0.0,-999.0,93,0.12,,,3.45,open2300 v1.10,2013-05-22 05:24:00,
2013-05-22 00:30:00,62.4,60.4,29.85,NE,45,0.0,-999.0,93,0.10,,,3.45,open2300 v1.10,2013-05-22 05:30:00,
2013-05-22 00:39:00,62.2,59.9,29.84,NE,45,0.0,-999.0,92,0.08,,,3.45,open2300 v1.10,2013-05-22 05:39:00,
2013-05-22 00:45:00,62.2,59.9,29.85,NNE,22,0.0,-999.0,92,0.06,,,3.45,open2300 v1.10,2013-05-22 05:45:00,
2013-05-22 00:54:00,62.2,60.2,29.85,ESE,112,0.0,-999.0,93,0.06,,,3.47,open2300 v1.10,2013-05-22 05:54:00,
2013-05-22 01:03:00,62.2,60.2,29.85,SSW,202,0.0,-999.0,93,0.04,,,3.47,open2300 v1.10,2013-05-22 06:03:00,
2013-05-22 01:09:00,62.1,60.0,29.84,SW,225,0.0,-999.0,93,0.02,,,3.47,open2300 v1.10,2013-05-22 06:09:00,
2013-05-22 01:15:00,62.1,60.0,29.83,SSE,157,0.0,-999.0,93,0.04,,,3.49,open2300 v1.10,2013-05-22 06:15:00,
2013-05-22 01:24:00,62.1,60.0,29.80,SSE,157,0.0,-999.0,93,0.04,,,3.49,open2300 v1.10,2013-05-22 06:24:00,
2013-05-22 01:30:00,62.1,60.0,29.81,SSE,157,0.0,-999.0,93,0.04,,,3.49,open2300 v1.10,2013-05-22 06:30:00,
2013-05-22 01:39:00,62.1,60.0,29.80,ESE,112,0.0,-999.0,93,0.04,,,3.49,open2300 v1.10,2013-05-22 06:39:00,
2013-05-22 01:45:00,62.2,60.2,29.79,South,180,0.0,-999.0,93,0.04,,,3.49,open2300 v1.10,2013-05-22 06:45:00,
2013-05-22 01:54:00,62.2,60.2,29.79,SSW,202,0.0,-999.0,93,0.02,,,3.49,open2300 v1.10,2013-05-22 06:54:00,
2013-05-22 02:01:00,62.2,60.2,29.79,SSW,202,0.0,-999.0,93,0.02,,,3.49,open2300 v1.10,2013-05-22 07:01:00,
2013-05-22 02:09:00,62.2,60.2,29.78,South,180,0.0,-999.0,93,0.02,,,3.49,open2300 v1.10,2013-05-22 07:09:00,
2013-05-22 02:15:00,62.2,60.2,29.78,SW,225,0.0,-999.0,93,0.00,,,3.49,open2300 v1.10,2013-05-22 07:15:00,
2013-05-22 02:24:00,62.2,60.2,29.78,SSW,202,0.0,-999.0,93,0.00,,,3.49,open2300 v1.10,2013-05-22 07:24:00,
2013-05-22 02:30:00,62.2,60.2,29.78,SSE,157,0.0,-999.0,93,0.00,,,3.49,open2300 v1.10,2013-05-22 07:30:00,
2013-05-22 02:39:00,62.2,60.2,29.79,SSW,202,0.0,-999.0,93,0.00,,,3.49,open2300 v1.10,2013-05-22 07:39:00,
2013-05-22 02:45:00,62.4,60.4,29.80,SSW,202,0.0,-999.0,93,0.00,,,3.49,open2300 v1.10,2013-05-22 07:45:00,
2013-05-22 02:54:00,62.2,60.2,29.81,South,180,0.0,-999.0,93,0.00,,,3.49,open2300 v1.10,2013-05-22 07:54:00,
2013-05-22 03:02:00,62.2,59.9,29.82,SSW,202,0.0,-999.0,92,0.00,,,3.41,open2300 v1.10,2013-05-22 08:02:00,
2013-05-22 03:09:00,62.2,59.9,29.83,WNW,292,0.0,-999.0,92,0.00,,,3.41,open2300 v1.10,2013-05-22 08:09:00,
2013-05-22 03:15:00,62.2,60.2,29.84,WNW,292,0.0,-999.0,93,0.00,,,3.41,open2300 v1.10,2013-05-22 08:15:00,
2013-05-22 03:24:00,62.1,60.0,29.84,WNW,292,0.0,-999.0,93,0.00,,,3.41,open2300 v1.10,2013-05-22 08:24:00,
2013-05-22 03:30:00,61.9,59.9,29.84,WNW,292,0.0,-999.0,93,0.00,,,3.41,open2300 v1.10,2013-05-22 08:30:00,
2013-05-22 03:39:00,61.9,59.9,29.85,WNW,292,0.0,-999.0,93,0.00,,,3.41,open2300 v1.10,2013-05-22 08:39:00,
2013-05-22 03:45:00,61.7,59.7,29.85,WNW,292,0.0,-999.0,93,0.00,,,3.41,open2300 v1.10,2013-05-22 08:45:00,
2013-05-22 03:54:00,61.5,59.5,29.85,WNW,292,0.0,-999.0,93,0.00,,,3.41,open2300 v1.10,2013-05-22 08:54:00,
2013-05-22 04:02:00,61.5,59.5,29.85,WNW,292,0.0,-999.0,93,0.00,,,3.41,open2300 v1.10,2013-05-22 09:02:00,
2013-05-22 04:09:00,61.5,59.5,29.85,WNW,292,0.0,-999.0,93,0.00,,,3.41,open2300 v1.10,2013-05-22 09:09:00,
2013-05-22 04:15:00,61.5,59.5,29.86,WNW,292,0.0,-999.0,93,0.00,,,3.41,open2300 v1.10,2013-05-22 09:15:00,
2013-05-22 04:24:00,61.5,59.5,29.86,WNW,292,0.0,-999.0,93,0.00,,,3.41,open2300 v1.10,2013-05-22 09:24:00,
2013-05-22 04:30:00,61.5,59.5,29.86,WNW,292,0.0,-999.0,93,0.00,,,3.41,open2300 v1.10,2013-05-22 09:30:00,
2013-05-22 04:39:00,61.5,59.5,29.86,WNW,292,0.0,-999.0,93,0.00,,,3.41,open2300 v1.10,2013-05-22 09:39:00,
2013-05-22 04:45:00,61.5,59.5,29.86,WNW,292,0.0,-999.0,93,0.00,,,3.41,open2300 v1.10,2013-05-22 09:45:00,
2013-05-22 04:54:00,61.5,59.5,29.86,WNW,292,0.0,-999.0,93,0.00,,,3.41,open2300 v1.10,2013-05-22 09:54:00,
2013-05-22 05:02:00,61.7,59.7,29.86,WNW,292,0.0,-999.0,93,0.00,,,3.41,open2300 v1.10,2013-05-22 10:02:00,
2013-05-22 05:09:00,61.7,59.7,29.86,WNW,292,0.0,-999.0,93,0.00,,,3.41,open2300 v1.10,2013-05-22 10:09:00,
2013-05-22 05:15:00,61.7,59.7,29.86,WNW,292,0.0,-999.0,93,0.00,,,3.41,open2300 v1.10,2013-05-22 10:15:00,
2013-05-22 05:24:00,61.7,59.7,29.86,WNW,292,0.0,-999.0,93,0.00,,,3.41,open2300 v1.10,2013-05-22 10:24:00,
2013-05-22 05:30:00,61.7,59.7,29.86,WNW,292,0.0,-999.0,93,0.00,,,3.41,open2300 v1.10,2013-05-22 10:30:00,
2013-05-22 05:39:00,61.7,59.7,29.86,WNW,292,0.0,-999.0,93,0.00,,,3.41,open2300 v1.10,2013-05-22 10:39:00,
2013-05-22 05:45:00,61.5,59.5,29.86,WNW,292,0.0,-999.0,93,0.00,,,3.41,open2300 v1.10,2013-05-22 10:45:00,
2013-05-22 05:54:00,61.5,59.5,29.86,WNW,292,0.0,-999.0,93,0.00,,,3.41,open2300 v1.10,2013-05-22 10:54:00,
2013-05-22 06:02:00,61.7,59.7,29.86,WNW,292,0.0,-999.0,93,0.00,,,3.41,open2300 v1.10,2013-05-22 11:02:00,
2013-05-22 06:09:00,61.7,59.7,29.86,NW,315,0.0,-999.0,93,0.00,,,3.41,open2300 v1.10,2013-05-22 11:09:00,
2013-05-22 06:15:00,61.7,59.7,29.86,NW,315,0.0,-999.0,93,0.00,,,3.41,open2300 v1.10,2013-05-22 11:15:00,
2013-05-22 06:24:00,61.9,59.9,29.85,NW,315,0.0,-999.0,93,0.00,,,3.41,open2300 v1.10,2013-05-22 11:24:00,
2013-05-22 06:30:00,61.9,59.9,29.85,NW,315,0.0,-999.0,93,0.00,,,3.41,open2300 v1.10,2013-05-22 11:30:00,
2013-05-22 06:39:00,61.9,59.9,29.85,NW,315,0.0,-999.0,93,0.00,,,3.41,open2300 v1.10,2013-05-22 11:39:00,
2013-05-22 06:45:00,61.9,59.9,29.85,NW,315,0.0,-999.0,93,0.00,,,3.41,open2300 v1.10,2013-05-22 11:45:00,
2013-05-22 06:54:00,62.2,60.2,29.86,NW,315,0.0,-999.0,93,0.00,,,3.41,open2300 v1.10,2013-05-22 11:54:00,
2013-05-22 07:02:00,62.2,60.2,29.86,NW,315,0.0,-999.0,93,0.00,,,3.41,open2300 v1.10,2013-05-22 12:02:00,
2013-05-22 07:09:00,62.2,60.2,29.86,NW,315,0.0,-999.0,93,0.00,,,3.41,open2300 v1.10,2013-05-22 12:09:00,
2013-05-22 07:15:00,62.4,60.4,29.86,NW,315,0.0,-999.0,93,0.00,,,3.41,open2300 v1.10,2013-05-22 12:15:00,
2013-05-22 07:24:00,62.4,60.4,29.87,SSE,157,0.0,-999.0,93,0.00,,,3.41,open2300 v1.10,2013-05-22 12:24:00,
2013-05-22 07:30:00,62.4,60.4,29.86,SSE,157,0.0,-999.0,93,0.00,,,3.41,open2300 v1.10,2013-05-22 12:30:00,
2013-05-22 07:39:00,62.8,60.8,29.86,SSE,157,0.0,-999.0,93,0.00,,,3.41,open2300 v1.10,2013-05-22 12:39:00,
2013-05-22 07:45:00,62.8,60.8,29.86,South,180,0.0,-999.0,93,0.00,,,3.41,open2300 v1.10,2013-05-22 12:45:00,
2013-05-22 07:54:00,63.0,60.9,29.86,SSE,157,0.0,-999.0,93,0.00,,,3.41,open2300 v1.10,2013-05-22 12:54:00,
2013-05-22 08:02:00,63.1,61.1,29.86,SSE,157,0.0,-999.0,93,0.00,,,3.41,open2300 v1.10,2013-05-22 13:02:00,
2013-05-22 08:09:00,63.3,61.3,29.86,SSE,157,0.0,-999.0,93,0.00,,,3.41,open2300 v1.10,2013-05-22 13:09:00,
2013-05-22 08:15:00,63.3,61.3,29.86,South,180,0.0,-999.0,93,0.00,,,3.41,open2300 v1.10,2013-05-22 13:15:00,
2013-05-22 08:24:00,63.5,61.5,29.86,SE,135,0.0,-999.0,93,0.00,,,3.41,open2300 v1.10,2013-05-22 13:24:00,
2013-05-22 08:30:00,63.9,61.8,29.86,SE,135,0.0,-999.0,93,0.00,,,3.41,open2300 v1.10,2013-05-22 13:30:00,
2013-05-22 08:39:00,64.2,61.9,29.86,South,180,0.0,-999.0,92,0.00,,,3.41,open2300 v1.10,2013-05-22 13:39:00,
2013-05-22 08:45:00,64.4,62.1,29.87,South,180,0.0,-999.0,92,0.00,,,3.41,open2300 v1.10,2013-05-22 13:45:00,
2013-05-22 08:54:00,64.8,62.4,29.87,SSE,157,0.0,-999.0,92,0.00,,,3.41,open2300 v1.10,2013-05-22 13:54:00,
2013-05-22 09:02:00,64.9,62.9,29.86,ESE,112,0.0,-999.0,93,0.00,,,3.39,open2300 v1.10,2013-05-22 14:02:00,
2013-05-22 09:09:00,64.9,62.9,29.87,SE,135,0.0,-999.0,93,0.00,,,3.39,open2300 v1.10,2013-05-22 14:09:00,
2013-05-22 09:15:00,64.9,62.9,29.87,SSE,157,0.0,-999.0,93,0.00,,,3.39,open2300 v1.10,2013-05-22 14:15:00,
2013-05-22 09:24:00,65.1,62.7,29.87,SE,135,0.0,-999.0,92,0.00,,,3.39,open2300 v1.10,2013-05-22 14:24:00,
2013-05-22 09:30:00,65.5,63.1,29.87,SE,135,0.0,-999.0,92,0.00,,,3.39,open2300 v1.10,2013-05-22 14:30:00,
2013-05-22 09:39:00,66.2,63.8,29.87,SE,135,0.0,-999.0,92,0.00,,,3.39,open2300 v1.10,2013-05-22 14:39:00,
2013-05-22 09:45:00,66.7,64.3,29.87,SE,135,0.0,-999.0,92,0.00,,,3.39,open2300 v1.10,2013-05-22 14:45:00,
2013-05-22 09:54:00,67.6,64.9,29.88,NNW,337,0.0,-999.0,91,0.00,,,3.39,open2300 v1.10,2013-05-22 14:54:00,
2013-05-22 10:02:00,68.5,65.8,29.87,SSE,157,0.0,-999.0,91,0.00,,,3.39,open2300 v1.10,2013-05-22 15:02:00,
2013-05-22 10:09:00,68.9,65.8,29.88,SSE,157,0.0,-999.0,90,0.00,,,3.39,open2300 v1.10,2013-05-22 15:09:00,
2013-05-22 10:15:00,69.1,65.7,29.88,SSE,157,0.0,-999.0,89,0.00,,,3.39,open2300 v1.10,2013-05-22 15:15:00,
2013-05-22 10:24:00,69.3,65.5,29.88,SSW,202,0.0,-999.0,88,0.00,,,3.39,open2300 v1.10,2013-05-22 15:24:00,
2013-05-22 10:30:00,69.6,65.9,29.88,SE,135,0.0,-999.0,88,0.00,,,3.39,open2300 v1.10,2013-05-22 15:30:00,
2013-05-22 10:39:00,70.0,65.6,29.88,NW,315,0.0,-999.0,86,0.00,,,3.39,open2300 v1.10,2013-05-22 15:39:00,
2013-05-22 10:45:00,70.5,66.1,29.88,South,180,0.0,-999.0,86,0.00,,,3.39,open2300 v1.10,2013-05-22 15:45:00,
2013-05-22 10:54:00,71.2,66.1,29.88,SE,135,0.0,-999.0,84,0.00,,,3.39,open2300 v1.10,2013-05-22 15:54:00,
2013-05-22 11:02:00,70.9,65.8,29.88,SE,135,0.0,-999.0,84,0.00,,,3.39,open2300 v1.10,2013-05-22 16:02:00,
2013-05-22 11:09:00,70.9,65.8,29.88,South,180,0.0,-999.0,84,0.00,,,3.39,open2300 v1.10,2013-05-22 16:09:00,
2013-05-22 11:15:00,71.1,65.6,29.88,SSE,157,0.0,-999.0,83,0.00,,,3.39,open2300 v1.10,2013-05-22 16:15:00,
2013-05-22 11:24:00,72.3,66.9,29.88,SSE,157,0.0,-999.0,83,0.00,,,3.39,open2300 v1.10,2013-05-22 16:24:00,
2013-05-22 11:30:00,73.4,66.9,29.88,SE,135,0.0,-999.0,80,0.00,,,3.39,open2300 v1.10,2013-05-22 16:30:00,
2013-05-22 11:39:00,73.6,67.1,29.88,SE,135,0.0,-999.0,80,0.00,,,3.39,open2300 v1.10,2013-05-22 16:39:00,
2013-05-22 11:45:00,74.1,66.9,29.88,SSE,157,0.0,-999.0,78,0.00,,,3.39,open2300 v1.10,2013-05-22 16:45:00,
2013-05-22 11:54:00,74.1,66.5,29.88,SSE,157,0.0,-999.0,77,0.00,,,3.39,open2300 v1.10,2013-05-22 16:54:00,
2013-05-22 12:02:00,73.6,65.9,29.88,SSE,157,0.0,-999.0,77,0.00,,,3.39,open2300 v1.10,2013-05-22 17:02:00,
2013-05-22 12:09:00,73.0,65.8,29.88,SSE,157,0.0,-999.0,78,0.00,,,3.39,open2300 v1.10,2013-05-22 17:09:00,
2013-05-22 12:15:00,73.0,65.8,29.88,West,270,0.0,-999.0,78,0.00,,,3.39,open2300 v1.10,2013-05-22 17:15:00,
2013-05-22 12:24:00,73.2,66.4,29.89,West,270,0.0,-999.0,79,0.00,,,3.39,open2300 v1.10,2013-05-22 17:24:00,
2013-05-22 12:30:00,73.9,66.3,29.89,SE,135,0.0,-999.0,77,0.00,,,3.39,open2300 v1.10,2013-05-22 17:30:00,
2013-05-22 12:39:00,73.9,66.3,29.89,SSE,157,0.0,-999.0,77,0.00,,,3.39,open2300 v1.10,2013-05-22 17:39:00,
2013-05-22 12:45:00,75.0,67.0,29.89,SSE,157,0.0,-999.0,76,0.00,,,3.39,open2300 v1.10,2013-05-22 17:45:00,
2013-05-22 12:54:00,75.0,66.6,29.89,SE,135,0.0,-999.0,75,0.00,,,3.39,open2300 v1.10,2013-05-22 17:54:00,
2013-05-22 13:02:00,76.5,67.6,29.89,SSE,157,0.0,-999.0,74,0.00,,,3.28,open2300 v1.10,2013-05-22 18:02:00,
2013-05-22 13:09:00,77.7,68.0,29.88,SE,135,0.0,-999.0,72,0.00,,,3.28,open2300 v1.10,2013-05-22 18:09:00,
2013-05-22 13:15:00,77.5,67.1,29.89,SW,225,0.0,-999.0,70,0.00,,,3.28,open2300 v1.10,2013-05-22 18:15:00,
2013-05-22 13:24:00,77.4,67.6,29.88,SE,135,0.0,-999.0,72,0.00,,,3.28,open2300 v1.10,2013-05-22 18:24:00,
2013-05-22 13:30:00,77.5,67.1,29.88,WSW,247,0.0,-999.0,70,0.00,,,3.28,open2300 v1.10,2013-05-22 18:30:00,
2013-05-22 13:39:00,76.8,67.1,29.88,NW,315,0.0,-999.0,72,0.00,,,3.28,open2300 v1.10,2013-05-22 18:39:00,
2013-05-22 13:45:00,78.1,67.5,29.88,WSW,247,0.0,-999.0,70,0.00,,,3.28,open2300 v1.10,2013-05-22 18:45:00,
2013-05-22 13:54:00,79.0,66.2,29.88,SW,225,0.0,-999.0,65,0.00,,,3.28,open2300 v1.10,2013-05-22 18:54:00,
2013-05-22 14:02:00,79.2,66.4,29.88,West,270,0.0,-999.0,65,0.00,,,3.14,open2300 v1.10,2013-05-22 19:02:00,
2013-05-22 14:09:00,79.2,66.4,29.88,NNW,337,0.0,-999.0,65,0.00,,,3.14,open2300 v1.10,2013-05-22 19:09:00,
2013-05-22 14:15:00,79.0,66.2,29.88,WSW,247,0.0,-999.0,65,0.00,,,3.14,open2300 v1.10,2013-05-22 19:15:00,
2013-05-22 14:24:00,77.7,65.4,29.88,West,270,0.0,-999.0,66,0.00,,,3.14,open2300 v1.10,2013-05-22 19:24:00,
2013-05-22 14:30:00,78.1,66.2,29.88,West,270,0.0,-999.0,67,0.00,,,3.14,open2300 v1.10,2013-05-22 19:30:00,
2013-05-22 14:39:00,77.9,66.0,29.88,NNE,22,0.0,-999.0,67,0.00,,,3.14,open2300 v1.10,2013-05-22 19:39:00,
2013-05-22 14:45:00,78.1,65.8,29.87,SSE,157,0.0,-999.0,66,0.00,,,3.14,open2300 v1.10,2013-05-22 19:45:00,
2013-05-22 14:54:00,77.9,66.0,29.87,WSW,247,0.0,-999.0,67,0.00,,,3.14,open2300 v1.10,2013-05-22 19:54:00,
2013-05-22 15:02:00,77.7,65.9,29.87,SE,135,0.0,-999.0,67,0.00,,,3.06,open2300 v1.10,2013-05-22 20:02:00,
2013-05-22 15:09:00,78.1,65.8,29.87,SE,135,0.0,-999.0,66,0.00,,,3.06,open2300 v1.10,2013-05-22 20:09:00,
2013-05-22 15:15:00,78.1,65.3,29.87,SE,135,0.0,-999.0,65,0.00,,,3.06,open2300 v1.10,2013-05-22 20:15:00,
2013-05-22 15:24:00,77.9,65.2,29.87,SSE,157,0.0,-999.0,65,0.00,,,3.06,open2300 v1.10,2013-05-22 20:24:00,
2013-05-22 15:30:00,77.5,64.4,29.86,SW,225,0.0,-999.0,64,0.00,,,3.06,open2300 v1.10,2013-05-22 20:30:00,
2013-05-22 15:39:00,77.5,64.8,29.86,SE,135,0.0,-999.0,65,0.00,,,3.06,open2300 v1.10,2013-05-22 20:39:00,
2013-05-22 15:45:00,77.7,64.5,29.86,WNW,292,0.0,-999.0,64,0.00,,,3.06,open2300 v1.10,2013-05-22 20:45:00,
2013-05-22 15:54:00,77.7,65.0,29.86,SSW,202,0.0,-999.0,65,0.00,,,3.06,open2300 v1.10,2013-05-22 20:54:00,
2013-05-22 16:02:00,77.5,64.8,29.86,SSE,157,0.0,-999.0,65,0.00,,,2.98,open2300 v1.10,2013-05-22 21:02:00,
2013-05-22 16:09:00,77.2,64.5,29.85,SSE,157,0.0,-999.0,65,0.00,,,2.98,open2300 v1.10,2013-05-22 21:09:00,
2013-05-22 16:15:00,77.2,64.9,29.85,SSE,157,0.0,-999.0,66,0.00,,,2.98,open2300 v1.10,2013-05-22 21:15:00,
2013-05-22 16:24:00,77.4,65.1,29.85,SW,225,0.0,-999.0,66,0.00,,,2.98,open2300 v1.10,2013-05-22 21:24:00,
2013-05-22 16:30:00,77.4,65.1,29.85,West,270,0.0,-999.0,66,0.00,,,2.98,open2300 v1.10,2013-05-22 21:30:00,
2013-05-22 16:39:00,77.4,65.1,29.85,SE,135,0.0,-999.0,66,0.00,,,2.98,open2300 v1.10,2013-05-22 21:39:00,
2013-05-22 16:45:00,77.2,65.4,29.86,SSE,157,0.0,-999.0,67,0.00,,,2.98,open2300 v1.10,2013-05-22 21:45:00,
2013-05-22 16:54:00,77.4,65.5,29.85,West,270,0.0,-999.0,67,0.00,,,2.98,open2300 v1.10,2013-05-22 21:54:00,
2013-05-22 17:02:00,77.2,65.4,29.85,West,270,0.0,-999.0,67,0.00,,,1.18,open2300 v1.10,2013-05-22 22:02:00,
2013-05-22 17:09:00,77.2,65.8,29.85,SSE,157,0.0,-999.0,68,0.00,,,1.18,open2300 v1.10,2013-05-22 22:09:00,
2013-05-22 17:15:00,77.4,66.4,29.85,NNW,337,0.0,-999.0,69,0.00,,,1.18,open2300 v1.10,2013-05-22 22:15:00,
2013-05-22 17:24:00,77.5,67.1,29.85,SSE,157,0.0,-999.0,70,0.00,,,1.18,open2300 v1.10,2013-05-22 22:24:00,
2013-05-22 17:30:00,77.7,66.3,29.85,WSW,247,0.0,-999.0,68,0.00,,,1.18,open2300 v1.10,2013-05-22 22:30:00,
2013-05-22 17:39:00,77.5,66.2,29.85,West,270,0.0,-999.0,68,0.00,,,1.18,open2300 v1.10,2013-05-22 22:39:00,
2013-05-22 17:45:00,77.2,65.8,29.85,SSE,157,0.0,-999.0,68,0.00,,,1.18,open2300 v1.10,2013-05-22 22:45:00,
2013-05-22 17:54:00,76.8,65.9,29.85,SSE,157,0.0,-999.0,69,0.00,,,1.18,open2300 v1.10,2013-05-22 22:54:00,
2013-05-22 18:02:00,76.6,66.2,29.85,SSE,157,0.0,-999.0,70,0.00,,,0.80,open2300 v1.10,2013-05-22 23:02:00,
2013-05-22 18:09:00,76.5,66.4,29.85,SSE,157,0.0,-999.0,71,0.00,,,0.80,open2300 v1.10,2013-05-22 23:09:00,
2013-05-22 18:15:00,76.3,66.2,29.85,SE,135,0.0,-999.0,71,0.00,,,0.80,open2300 v1.10,2013-05-22 23:15:00,
2013-05-22 18:24:00,76.1,67.2,29.85,SE,135,0.0,-999.0,74,0.00,,,0.80,open2300 v1.10,2013-05-22 23:24:00,
2013-05-22 18:30:00,75.9,67.4,29.85,SE,135,0.0,-999.0,75,0.00,,,0.80,open2300 v1.10,2013-05-22 23:30:00,
2013-05-22 18:39:00,75.7,67.2,29.85,SE,135,0.0,-999.0,75,0.00,,,0.80,open2300 v1.10,2013-05-22 23:39:00,
2013-05-22 18:45:00,75.4,66.9,29.85,SE,135,0.0,-999.0,75,0.00,,,0.80,open2300 v1.10,2013-05-22 23:45:00,
2013-05-22 18:54:00,75.4,66.9,29.85,SE,135,0.0,-999.0,75,0.00,,,0.80,open2300 v1.10,2013-05-22 23:54:00,
2013-05-22 19:02:00,75.0,67.0,29.85,SE,135,0.0,-999.0,76,0.00,,,0.73,open2300 v1.10,2013-05-23 00:02:00,
2013-05-22 19:09:00,74.8,66.8,29.86,SE,135,0.0,-999.0,76,0.00,,,0.73,open2300 v1.10,2013-05-23 00:09:00,
2013-05-22 19:15:00,74.5,66.4,29.86,SE,135,0.0,-999.0,76,0.00,,,0.73,open2300 v1.10,2013-05-23 00:15:00,
2013-05-22 19:24:00,74.1,66.5,29.86,SE,135,0.0,-999.0,77,0.00,,,0.73,open2300 v1.10,2013-05-23 00:24:00,
2013-05-22 19:30:00,73.9,66.7,29.87,SE,135,0.0,-999.0,78,0.00,,,0.73,open2300 v1.10,2013-05-23 00:30:00,
2013-05-22 19:39:00,73.2,66.4,29.87,SE,135,0.0,-999.0,79,0.00,,,0.73,open2300 v1.10,2013-05-23 00:39:00,
2013-05-22 19:45:00,72.9,66.0,29.87,SE,135,0.0,-999.0,79,0.00,,,0.73,open2300 v1.10,2013-05-23 00:45:00,
2013-05-22 19:54:00,72.3,65.5,29.87,SE,135,0.0,-999.0,79,0.00,,,0.73,open2300 v1.10,2013-05-23 00:54:00,
2013-05-22 20:02:00,71.8,65.3,29.87,SE,135,0.0,-999.0,80,0.00,,,0.73,open2300 v1.10,2013-05-23 01:02:00,
2013-05-22 20:09:00,71.2,65.1,29.87,SE,135,0.0,-999.0,81,0.00,,,0.73,open2300 v1.10,2013-05-23 01:09:00,
2013-05-22 20:15:00,70.9,65.1,29.87,SE,135,0.0,-999.0,82,0.00,,,0.73,open2300 v1.10,2013-05-23 01:15:00,
2013-05-22 20:24:00,70.3,64.5,29.87,SE,135,0.0,-999.0,82,0.00,,,0.73,open2300 v1.10,2013-05-23 01:24:00,
2013-05-22 20:30:00,70.0,64.2,29.88,SE,135,0.0,-999.0,82,0.00,,,0.73,open2300 v1.10,2013-05-23 01:30:00,
2013-05-22 20:39:00,69.3,63.8,29.88,SE,135,0.0,-999.0,83,0.00,,,0.73,open2300 v1.10,2013-05-23 01:39:00,
2013-05-22 20:45:00,68.7,63.7,29.88,SE,135,0.0,-999.0,84,0.00,,,0.73,open2300 v1.10,2013-05-23 01:45:00,
2013-05-22 20:54:00,68.5,63.8,29.88,SE,135,0.0,-999.0,85,0.00,,,0.73,open2300 v1.10,2013-05-23 01:54:00,
2013-05-22 21:02:00,68.2,63.5,29.88,SE,135,0.0,-999.0,85,0.00,,,0.67,open2300 v1.10,2013-05-23 02:02:00,
2013-05-22 21:09:00,67.8,63.1,29.89,SE,135,0.0,-999.0,85,0.00,,,0.67,open2300 v1.10,2013-05-23 02:09:00,
2013-05-22 21:15:00,67.6,63.3,29.89,SE,135,0.0,-999.0,86,0.00,,,0.67,open2300 v1.10,2013-05-23 02:15:00,
2013-05-22 21:24:00,67.3,62.9,29.89,SE,135,0.0,-999.0,86,0.00,,,0.67,open2300 v1.10,2013-05-23 02:24:00,
2013-05-22 21:30:00,67.1,62.7,29.89,SE,135,0.0,-999.0,86,0.00,,,0.67,open2300 v1.10,2013-05-23 02:30:00,
2013-05-22 21:39:00,66.7,62.7,29.90,SE,135,0.0,-999.0,87,0.00,,,0.67,open2300 v1.10,2013-05-23 02:39:00,
2013-05-22 21:45:00,66.6,62.5,29.90,SE,135,0.0,-999.0,87,0.00,,,0.67,open2300 v1.10,2013-05-23 02:45:00,
2013-05-22 21:54:00,66.2,62.2,29.90,SE,135,0.0,-999.0,87,0.00,,,0.67,open2300 v1.10,2013-05-23 02:54:00,
2013-05-22 22:02:00,66.0,62.3,29.90,SE,135,0.0,-999.0,88,0.00,,,0.24,open2300 v1.10,2013-05-23 03:02:00,
2013-05-22 22:09:00,65.8,62.2,29.90,SE,135,0.0,-999.0,88,0.00,,,0.24,open2300 v1.10,2013-05-23 03:09:00,
2013-05-22 22:15:00,65.5,61.8,29.90,SE,135,0.0,-999.0,88,0.00,,,0.24,open2300 v1.10,2013-05-23 03:15:00,
2013-05-22 22:24:00,65.3,61.7,29.90,SE,135,0.0,-999.0,88,0.00,,,0.24,open2300 v1.10,2013-05-23 03:24:00,
2013-05-22 22:30:00,65.1,61.5,29.90,SE,135,0.0,-999.0,88,0.00,,,0.24,open2300 v1.10,2013-05-23 03:30:00,
2013-05-22 22:39:00,65.1,61.8,29.90,SE,135,0.0,-999.0,89,0.00,,,0.24,open2300 v1.10,2013-05-23 03:39:00,
2013-05-22 22:46:00,64.9,61.7,29.91,SE,135,0.0,-999.0,89,0.00,,,0.24,open2300 v1.10,2013-05-23 03:46:00,
2013-05-22 22:54:00,64.8,61.5,29.91,SE,135,0.0,-999.0,89,0.00,,,0.24,open2300 v1.10,2013-05-23 03:54:00,
2013-05-22 23:02:00,64.6,61.3,29.91,SE,135,0.0,-999.0,89,0.00,,,0.06,open2300 v1.10,2013-05-23 04:02:00,
2013-05-22 23:09:00,64.4,61.5,29.91,SE,135,0.0,-999.0,90,0.00,,,0.06,open2300 v1.10,2013-05-23 04:09:00,
2013-05-22 23:15:00,64.2,61.3,29.91,SE,135,0.0,-999.0,90,0.00,,,0.06,open2300 v1.10,2013-05-23 04:15:00,
2013-05-22 23:24:00,64.0,60.8,29.91,SE,135,0.0,-999.0,89,0.00,,,0.06,open2300 v1.10,2013-05-23 04:24:00,
2013-05-22 23:30:00,64.0,60.8,29.91,SE,135,0.0,-999.0,89,0.00,,,0.06,open2300 v1.10,2013-05-23 04:30:00,
2013-05-22 23:39:00,63.7,60.8,29.91,SE,135,0.0,-999.0,90,0.00,,,0.06,open2300 v1.10,2013-05-23 04:39:00,
2013-05-22 23:45:00,63.7,60.8,29.91,SE,135,0.0,-999.0,90,0.00,,,0.06,open2300 v1.10,2013-05-23 04:45:00,
2013-05-22 23:54:00,63.5,60.6,29.92,SE,135,0.0,-999.0,90,0.00,,,0.06,open2300 v1.10,2013-05-23 04:54:00,